Weather History for The Dalles, OR

Change the Weather History Date:

Thursday, February 14, 2013

  Actual Average Record
Temperature  
Mean Temperature 47 °F -  
Max Temperature 55 °F 47 °F 61 °F (1977)
Min Temperature 37 °F 32 °F 18 °F (1990)
Degree Days  
Heating Degree Days 18    
Moisture  
Dew Point 37 °F    
Average Humidity 68    
Maximum Humidity 89    
Minimum Humidity 55    
Precipitation  
Precipitation 0.00 in - - ()
Sea Level Pressure  
Sea Level Pressure 30.49 in    
Wind  
Wind Speed 5 mph (NW)    
Max Wind Speed 14 mph    
Max Gust Speed 20 mph    
Visibility 10 miles    
Events      
Averages and records for this station are not official NWS values.
T = Trace of Precipitation, MM = Missing Value Source: NWS Daily Summary

Daily Weather History Graph

Daily Weather History Graph

Search for Another Location

Airport:

Trip Planner

Search our weather history database for the weather conditions in past years. The results will help you decide how hot, cold, wet, or windy it might be!

Date:

Astronomy

Feb. 14, 2013 Rise Set
Actual Time 7:07 AM PST 5:30 PM PST
Civil Twilight 6:37 AM PST 6:01 PM PST
Nautical Twilight 6:02 AM PST 6:36 PM PST
Astronomical Twilight 5:27 AM PST 7:10 PM PST
Moon 8:55 AM PST (2/14) 10:57 PM PST (2/14)
Length of Visible Light 11h 24m
Length of Day
10h 23m
Waxing Crescent, 22% of the Moon is Illuminated
Feb 14
Waxing Crescent
Feb 17
First Quarter
Feb 25
Full
Mar 4
Last Quarter
Mar 11
New

Hourly Weather History & Observations

Time (PST) Temp. Windchill Dew Point Humidity Pressure Visibility Wind Dir Wind Speed Gust Speed Precip Events Conditions
12:53 AM 44.1 °F 41.5 °F 35.1 °F 71% 30.45 in 10.0 mi WSW 4.6 mph - N/A   Clear
1:53 AM 45.0 °F 41.8 °F 35.1 °F 68% 30.47 in 10.0 mi Variable 5.8 mph - N/A   Clear
2:53 AM 46.0 °F 41.4 °F 35.1 °F 66% 30.48 in 10.0 mi WNW 9.2 mph 19.6 mph N/A   Clear
3:53 AM 42.1 °F 39.2 °F 34.0 °F 73% 30.48 in 10.0 mi Variable 4.6 mph - N/A   Clear
4:53 AM 39.0 °F 36.8 °F 33.1 °F 79% 30.49 in 10.0 mi West 3.5 mph - N/A   Clear
5:53 AM 39.9 °F - 34.0 °F 79% 30.49 in 10.0 mi Calm Calm - N/A   Clear
6:53 AM 42.1 °F - 34.0 °F 73% 30.50 in 10.0 mi Calm Calm - N/A   Clear
7:53 AM 43.0 °F - 34.0 °F 71% 30.51 in 10.0 mi Calm Calm - N/A   Scattered Clouds
8:53 AM 44.1 °F - 36.0 °F 73% 30.52 in 10.0 mi Calm Calm - N/A   Clear
9:53 AM 48.0 °F - 36.0 °F 63% 30.51 in 10.0 mi Calm Calm - N/A   Overcast
10:53 AM 50.0 °F - 37.0 °F 61% 30.51 in 10.0 mi Calm Calm - N/A   Mostly Cloudy
11:53 AM 52.0 °F - 37.0 °F 57% 30.50 in 10.0 mi Calm Calm - N/A   Partly Cloudy
12:53 PM 53.1 °F - 37.9 °F 57% 30.48 in 10.0 mi NNW 10.4 mph - N/A   Partly Cloudy
1:53 PM 55.0 °F - 39.0 °F 55% 30.48 in 10.0 mi North 4.6 mph - N/A   Clear
2:53 PM 55.0 °F - 39.0 °F 55% 30.47 in 10.0 mi NNW 13.8 mph - N/A   Clear
3:53 PM 55.0 °F - 39.0 °F 55% 30.47 in 10.0 mi NNW 12.7 mph - N/A   Clear
4:53 PM 54.0 °F - 39.0 °F 57% 30.47 in 10.0 mi NNW 11.5 mph - N/A   Clear
5:53 PM 51.1 °F - 39.0 °F 63% 30.47 in 10.0 mi NNW 10.4 mph - N/A   Clear
6:53 PM 50.0 °F - 39.0 °F 66% 30.48 in 10.0 mi NNW 13.8 mph - N/A   Clear
7:53 PM 48.9 °F - 39.0 °F 69% 30.48 in 10.0 mi NW 9.2 mph 19.6 mph N/A   Clear
8:53 PM 48.0 °F - 39.0 °F 71% 30.49 in 10.0 mi WNW 6.9 mph - N/A   Clear
9:53 PM 42.1 °F 40.2 °F 36.0 °F 79% 30.51 in 10.0 mi NNE 3.5 mph - N/A   Clear
10:53 PM 42.1 °F - 37.0 °F 82% 30.52 in 10.0 mi Calm Calm - N/A   Clear
11:53 PM 37.9 °F - 35.1 °F 89% 30.53 in 10.0 mi Calm Calm - N/A   Clear